Strona główna
METAR-TAF:

METAR-TAF

Lotnisko :

Pembrey, Walia

Szerokość geograficzna: 51-43N, Długość geograficzna: 004-22W, wysokość: 3 m

Aktualna obserwacja pogody

Raport powstał 6 godziny i 14 minut temu, godzina 11:50 UTC
Wiatr 8 kt od południowy zachód
Temperatura 17°C
Wilgotność 82%
Ciśnienie 1025 hPa
Widzialność 10 km lub więcej

METAR: EGOP 121150Z AUTO 23008KT 9999 // SCT027/// 17/14 Q1025

czas: 19:04 (18:04 UTC)


TAF: brakujący

Obserwacja i prognoza pogody dla ponad 4000 lotnisk (raport METAR i TAF).

Dostępne stacje oznaczono żółtymi i czerwonymi punktami na mapie.

Najedź kursorem aby zobaczyć nazwę stacji.

Kliknij aby zobaczyć obserwacje i prognozy pogody.

Aby zmienić mapę: kliknij na zielony przycisk z czarnym krzyżykiem, aby powiększyć; na zielony przycisk z myślnikiem, aby pomniejszyć; na zielone strzałki, aby przejść do map sąsiednich.


METAR-TAF: